sat.trackr.live / text

‹ back to catalog

O3B FM12

NORAD 40350 · 2014-083C

PAYLOAD ACTIVE UNKNOWN

§ Identity

Operator
Country
O3B
Launch date
2014-12-18
Launch site
FRGUI
Launch vehicle
Mass (kg)
RCS (m²)
7.81

Purposes: comms

External: N2YO · Heavens-Above · Gunter

§ Orbital elements

Epoch: 2026-09-19T17:55:58.333152Z

Period
287.93 min
Inclination
0.0531°
Eccentricity
0.0002418
Mean motion
5.00116041 rev/d
Perigee alt
8,062.4 km
Apogee alt
8,069.4 km
Semi-major
14,444.0 km
B*
0.0000e+0
RAAN
348.8916°
Arg perigee
189.9760°
Mean anomaly
181.1351°
Rev number
21,465

§ Raw data

O3B FM121 40350U 14083C   26262.74720293 -.00000027  00000+0  00000+0 0  99982 40350   0.0531 348.8916 0002418 189.9760 181.1351  5.00116041214653

JSON: /api/v1/satellites/40350 · /tle

For live sub-satellite position, see the globe view (requires WebGL).

§ Visibility from observer

Set your observer location to see the next 7 days of passes ≥ 10°. The values pass through the URL so the page stays shareable.

No JS? Fill the form by hand. The geolocation button needs JavaScript.